This demonstration page uses our WeatherBlox Daily Observations layout. Learn more.

Left ArrowRight Arrow

39.01783, -85.05884

Hourly Observations for April 17, 2019

Temp ( °F °C ) Dew Point ( °F °C ) Humidity (%) Winds ( mph kmh ) Pressure ( in mb ) Visibility ( mi km ) Precip ( " mm )
12:52 am 00:52 Partly Cloudy 58 14.4 45 7.2 62 62 SSW 6 9 30.01 1016 10 16 N/A
1:52 am 01:52 Mostly Cloudy 58 14.4 45 7.2 62 62 S 6 9 30.00 1016 10 16 N/A
2:52 am 02:52 Cloudy 57 13.9 44 6.7 62 62 SSW 5 7 29.99 1016 10 16 N/A
3:52 am 03:52 Cloudy 56 13.3 45 7.2 67 67 S 6 9 29.99 1016 10 16 N/A
4:52 am 04:52 Cloudy 55 12.8 45 7.2 69 69 S 8 13 29.98 1015 10 16 N/A
5:52 am 05:52 Cloudy 56 13.3 44 6.7 65 65 S 8 13 29.99 1016 10 16 N/A
6:52 am 06:52 Cloudy 55 12.8 45 7.2 69 69 S 7 11 30.01 1016 10 16 N/A
7:52 am 07:52 Cloudy 55 12.8 47 8.3 74 74 S 8 13 30.02 1017 10 16 N/A
8:52 am 08:52 Cloudy 60 15.6 48 8.9 65 65 S 7 11 30.01 1016 10 16 N/A
9:52 am 09:52 Cloudy 63 17.2 49 9.4 60 60 S 8 13 30.01 1016 10 16 N/A
10:52 am 10:52 Cloudy 66 18.9 48 8.9 52 52 SSW 9 15 30.01 1016 10 16 N/A
11:52 am 11:52 Cloudy 68 20 51 10.6 55 55 SSW 9 15 30.00 1016 10 16 N/A
12:52 pm 12:52 Cloudy 70 21.1 50 10 49 49 SSW 14 22 29.98 1015 10 16 N/A
1:52 pm 13:52 Cloudy 72 22.2 50 10 46 46 SSW 12 19 29.96 1014 10 16 N/A
2:52 pm 14:52 Cloudy 74 23.3 52 11.1 46 46 S 14 22 29.93 1014 10 16 N/A
3:52 pm 15:52 Cloudy 74 23.3 51 10.6 45 45 S 12 19 29.89 1012 10 16 N/A
4:52 pm 16:52 Cloudy 74 23.3 51 10.6 45 45 S 16 26 29.84 1010 10 16 N/A
5:52 pm 17:52 Cloudy 73 22.8 52 11.1 48 48 S 13 20 29.84 1011 10 16 N/A
6:52 pm 18:52 Mostly Cloudy 73 22.8 49 9.4 43 43 S 17 28 29.83 1010 10 16 N/A
7:52 pm 19:52 Partly Cloudy 70 21.1 50 10 49 49 S 8 13 29.82 1010 10 16 N/A
8:52 pm 20:52 Mostly Cloudy 67 19.4 50 10 55 55 S 8 13 29.82 1010 10 16 N/A
9:52 pm 21:52 Partly Cloudy 63 17.2 51 10.6 65 65 S 10 17 29.82 1010 10 16 N/A
10:52 pm 22:52 Mostly Cloudy 69 20.6 50 10 51 51 SSW 13 20 29.80 1009 10 16 N/A
11:52 pm 23:52 Cloudy 71 21.7 47 8.3 42 42 SSW 13 20 29.79 1009 10 16 N/A

Powered by AerisWeather